STARLINK-36922, 68123

Orbit data source: Space-Track

STARLINK-36922, 68123 is a payload satellite owned by SpaceX/Seattle (US) in SSO that was launched on Sun, 08 Mar 2026 UTC via an FALCON 9 launch vehicle from the Air Force Western Test Range (AFWTR). Payload-class satellites include a variety of spacecraft equipped with specific instruments for various scientific and technological missions. These include communications satellites like Starlink; space stations such as the ISS; scientific satellites like the Hubble; Earth observation satellites from companies like Planet Labs, Umbra, and HawkEye 360; GPS; miniature CubeSats for education and research; and military/defense satellites.

Loading next visibility...
Identifier
68123, 2026-044Y
Orbit
SSO
Country
Flag of USUS
Related business
Manufacturer
SpaceX/Seattle
Mission
Operational spacecraft
Bus & Motor
STARLINK V2MO, Unknown motor
Mass
575 kg wet, ~530 kg dry
Launch date (UTC)
2026-03-08 (2 months ago)
Launch vehicle
FALCON 9
Launch site
Air Force Western Test Range (AFWTR)
Object type
Payload
Rocket body
Debris
Shape & HBR
Unknown shape, 17.7 m
Radar Cross Section
RCS unknown

Expand to show TLE details & history
Last TLE update: 6 hours ago

TLE from 6 hours ago
0 STARLINK-36922
1 68123U 26044Y   26119.62189229  .00018484  00000-0  57338-3 0  9998
2 68123  97.2857  80.6867 0001811  94.8076 265.3374 15.33448362  9390
Epoch: 2026-04-29T14:55Z
TLE epoch observation values (Epoch: 2026-04-29T14:55:31.493Z)
Latitude
-0.00001°
Longitude
-0.77473°
Altitude
468.746 km
Speed
7.632 km/s
True Right ascension
05h 22m 44s
True Declination
0° 00' 00"
Sunlit
Object was in daylight at epoch
Visualization orbit readout
Latitude
Unknown
Longitude
Unknown
Altitude
Unknown
Speed
Unknown
Apparent Right ascension
Unknown
Apparent Declination
Unknown
Sunlit
N/A
Visualization observer readout
Local Sidereal Time
04:41:04
Azimuth
Unknown
Elevation
Unknown
Doppler factor
Unknown
Orbital elements
Apogee altitude
463.715 km
Perigee altitude
461.237 km
Semi-major axis
6,840.613 km
Eccentricity
0.00018
Inclination
97.2857°
RAAN
80.6867°
Arg. of periapsis
94.8076°
True anomaly
265.31672°
Mean anomaly
265.3374°
Eccentric anomaly
265.32706°
Mean motion
3.83619 °/min
Orbital period
93.84 mins
BSTAR
0.00057338
Loading maneuver chart data...
Computing Atmospheric mass density...
Loading historical data...
Loading historical data...
Loading historical data...
Loading historical data...
Loading historical data...
Loading historical data...
Loading historical data...

Documentation

Showing up to 5 results
|